Regional Weather Roundup
Issued by NWS

Home | Current Version | Previous Version | Graphics & Text | Print | Product List | Glossary On
Versions: 1 2 3 4 5 6 7 8 9 10 11 12 13 14 15 16 17 18 19 20 21 22 23 24 25 26 27 28 29 30 31 32 33 34 35 36 37 38 39 40 41 42 43 44 45 46 47 48 49 50
000
ASUS43 KMKX 311021
RWRWI

WISCONSIN REGIONAL WEATHER ROUNDUP
NATIONAL WEATHER SERVICE MILWAUKEE/SULLIVAN WI
500 AM CDT TUE MAY 31 2016

NOTE: "FAIR" INDICATES FEW OR NO CLOUDS BELOW 12,000 FEET WITH NO
SIGNIFICANT WEATHER AND/OR OBSTRUCTIONS TO VISIBILITY.

WIZ001-002-006>008-014>016-023>028-311100-
NORTHWEST WISCONSIN

CITY           SKY/WX    TMP DP  RH WIND       PRES   REMARKS
SUPERIOR ARPT  CLOUDY    44  42  90 NE15G21   30.02R
ASHLAND        CLOUDY    48  45  89 NE8       30.01S
HAYWARD        CLOUDY    57  49  74 NE5       29.95S
SIREN          CLOUDY    63  56  77 E9        29.88F
CUMBERLAND     CLOUDY    61  54  77 E6        29.89F
RICE LAKE      CLOUDY    65  54  67 E10       29.89F
CHETEK         CLOUDY    65  57  75 E7        29.89F
LADYSMITH      MOCLDY    63  55  77 E5        29.95F
EAU CLAIRE     CLOUDY    64  58  80 SE10      29.89S
MENOMONIE      CLOUDY    65  56  72 SE6       29.90R
NEW RICHMOND   CLOUDY    64  54  69 SE7       29.88R
OSCEOLA        CLOUDY    66  55  68 SE7       29.90R
$$

WIZ003>005-009-010-017-018-311100-
NORTH CENTRAL WISCONSIN

CITY           SKY/WX    TMP DP  RH WIND       PRES   REMARKS
MANITOWISH WTR NOT AVBL
ARBOR VITAE    CLOUDY    56  51  84 E7        30.04R
WOODRUFF       CLOUDY    56  51  84 E7        30.04R
RHINELANDER    MOCLDY    52  48  86 E8        30.05R
EAGLE RIVER      N/A     51  46  82 E8        30.05S
LAND O LAKES   CLOUDY    49  45  86 E5        30.08R
PHILLIPS       CLOUDY    57  49  74 E5        29.99S
TOMAHAWK       CLOUDY    57  49  75 E6        30.03S
MEDFORD        CLOUDY    60  55  83 E3        29.98S
MERRILL        CLOUDY    58  51  79 E6        30.03S
$$

WIZ029-030-035-036-043>047-311100-
CENTRAL WISCONSIN

CITY           SKY/WX    TMP DP  RH WIND       PRES   REMARKS
WAUSAU         CLOUDY    59  51  75 E12       30.00F
MOSINEE        RAIN      55  54  94 E15       29.99F
MARSHFIELD     CLOUDY    63  55  75 E9        29.96F
STEVENS POINT  LGT RAIN  58  54  87 NE9       30.00F
WAUPACA        CLOUDY    62  60  93 NE5       30.02F
WAUTOMA        CLOUDY   N/A N/A N/A CALM      30.00F
WISC RAPIDS    CLOUDY    62  55  77 E6        29.99F
CAMP DOUGLAS   NOT AVBL
$$

WIZ011>013-019>022-031-037>040-048>050-311100-
NORTHEAST WISCONSIN

CITY           SKY/WX    TMP DP  RH WIND       PRES   REMARKS
ANTIGO         CLOUDY    51  48  90 SE13      30.05S
SHAWANO        CLOUDY    58  50  77 E8        30.06R
OCONTO         PTCLDY    52  50  92 NE6       30.05F
STURGEON BAY   NOT AVBL
GREEN BAY      CLOUDY    58  53  84 NE14      30.05R
MANITOWOC      CLOUDY    55  49  80 N10       30.05R
APPLETON       PTCLDY    59  52  77 NE10      30.03S
CLINTONVILLE   CLOUDY    55  50  82 E3        30.05S
OSHKOSH        CLOUDY    66  57  72 CALM      30.01F
$$

WIZ032>034-041-042-053>061-311100-
SOUTHWEST WISCONSIN

CITY           SKY/WX    TMP DP  RH WIND       PRES   REMARKS
LA CROSSE      MOCLDY    64  59  83 SE10      29.91S
SPARTA         PTCLDY    59  59  99 CALM      29.94S
VIROQUA        MOCLDY    60  59  97 SE13      29.95S
BOSCOBEL       NOT AVBL
PRAIRIE DU CHI CLOUDY    61  60  96 SE3       29.93F
PLATTEVILLE    PTCLDY    62  58  89 E10       29.96F
$$

WIZ056-057-062-063-064-067-068-311100-
SOUTH CENTRAL WISCONSIN

CITY           SKY/WX    TMP DP  RH WIND       PRES   REMARKS
REEDSBURG      MOCLDY    62  56  82 E3        29.97S
BARABOO/DELLS  MOCLDY    64  54  68 E6        29.97S
LONE ROCK      PTCLDY    62  59  90 CALM      29.98R
MINERAL POINT  CLEAR     63  55  77 E7        29.97F
MADISON        CLOUDY    63  59  87 SE6       30.00S
MIDDLETON      CLOUDY    65  60  83 E5        30.00F
WATERTOWN      PTCLDY    60  60 100 CALM      30.01F
MONROE         MOCLDY    63  55  77 NE3       30.00S
JANESVILLE     CLOUDY    63  59  88 W5        30.01R
$$

WIZ051-052-058>065-066-070>072-311100-
SOUTHEAST WISCONSIN

CITY           SKY/WX    TMP DP  RH WIND       PRES   REMARKS
MILWAUKEE      LGT RAIN  63  57  81 E14       29.97F
WAUKESHA       LGT RAIN  61  55  82 W6        30.04R
MILWAUKEE/TIMM MOCLDY    64  52  63 W16       30.02R
RACINE         MOCLDY    63  57  81 CALM      30.02R
BURLINGTON     CLOUDY    62  57  84 CALM      30.01R
KENOSHA        CLOUDY    62  55  77 E3        30.00R
FOND DU LAC    CLOUDY    64  58  80 S7        30.01F
SHEBOYGAN      MOCLDY    60  55  83 N9        30.05R
WEST BEND      RAIN      63  55  77 W5        30.04R
JUNEAU         CLOUDY    61  58  90 SE3       30.03F
$$

LSZ147-162-311100-
LAKE SUPERIOR

STATION/POSITION TIME  TEMP    WIND        PRES    WAVE
                       AIR SEA DIR/SP/G            HT/PER
                 (UTC) (F)     (DEG/KT/KT) (MB)    (FT/S)
W MID LAKE BUOY  0950   42 38   90/ 14/ 17 1019.2R   2/ 3
DEVILS ISLAND    1000   44      90/ 21/ 24 1018.1R
SAXON HARBOR     0940   51      CALM  /  2 1015.6S
$$

LMZ867-665-643>646-311100-
LAKE MICHIGAN

STATION/POSITION TIME  TEMP    WIND        PRES    WAVE
                       AIR SEA DIR/SP/G            HT/PER
                 (UTC) (F)     (DEG/KT/KT) (MB)    (FT/S)
CHAMBERS ISLAND  0900   53      10/ 16/ 19 1017.9R
N MID LAKE BUOY  0950   49 49   20/ 12/ 14 1017.8R   1/ 4
NORTHPORT PIER   0900   53      40/  9/ 11 1017.9R
KEWAUNEE LAKESHO 0900   53      20/ 12/ 18 1016.4R
SHEBOYGAN LAKESH 1000   52     340/ 17/ 19 1017.8R
PORT WASHINGTON  1000   65     280/  7/ 15 1017.3R
S MID LAKE BUOY  0950   58 56  140/  4/  6 1015.5R   0
KENOSHA   LAKESH 1000   65     180/  1/  2 1015.9R
$$

TC  - TEMPERATURE IN CELSIUS
VSB - VISIBILITY IN STATUTE MILES
WCI - WIND CHILL INDEX
HX  - HEAT INDEX





USA.gov is the U.S. government's official web portal to all federal, state and local government web resources and services.